Regional Weather Roundup
Issued by NWS Grand Forks, ND

Home | Current Version | Previous Version | Graphics & Text | Print | Product List | Glossary On
Versions: 1 2 3 4 5 6 7 8 9 10 11 12 13 14 15 16 17 18 19 20 21 22 23 24 25 26 27 28 29 30 31 32 33 34 35 36 37 38 39 40 41 42 43 44 45 46 47 48 49 50
000
ASUS43 KFGF 300131
RWRFGF
PRAIRIE TO PINES  WEATHER ROUNDUP
NATIONAL WEATHER SERVICE EASTERN NORTH DAKOTA/GRAND FORKS ND
800 PM CDT FRI JUL 29 2016

 **SATELLITE DATA USED TO AUGMENT SKY COVER AT AUTOMATED STATIONS**
 *****  WEATHER ACROSS EASTERN NORTH DAKOTA  *****

CITY           SKY/WX    TMP DP  RH WIND       PRES   REMARKS
GRAND FORKS    PTCLDY    78  56  46 E3        29.97F
GRAND FRKS AFB PTCLDY    77  55  47 CALM      29.99F
DEVILS LAKE    CLOUDY    74  60  61 SE7       30.00S
FARGO          CLEAR     77  61  57 NE3       29.99S
WAHPETON ARPT  CLEAR     70  59  68 SE5       30.01S
$$

 ***** WEATHER ACROSS CENTRAL AND WESTERN NORTH DAKOTA  *****

CITY           SKY/WX    TMP DP  RH WIND       PRES   REMARKS
BISMARCK       MOSUNNY   77  62  59 S12       29.97F
MINOT          MOSUNNY   81  57  43 SW8       29.96F
JAMESTOWN      SUNNY     74  63  68 S6        29.99F
MINOT AFB      MOSUNNY   77  59  53 SW5       29.95S
GARRISON         N/A     76  62  62 CALM      29.97F
WILLISTON      MOSUNNY   80  48  32 CALM      29.97S
DICKINSON      MOSUNNY   76  56  49 NE7       29.96F
HETTINGER      PTSUNNY   83  49  30 SW6       29.98F
$$

 *****  OTHER AIRPORT OBSERVATIONS IN OUR AREA  *****

CITY           SKY/WX    TMP DP  RH WIND       PRES   REMARKS
WALHALLA       FAIR      72  68  88 SE7       29.98S
GRAFTON AIRPOR FAIR      75  54  46 CALM      30.00S
VALLEY CITY AR MOCLDY    70  68  94 E6        30.03S
CANDO          FAIR      68  64  88 SE7       30.01S
CAVALIER APRT  FAIR      75  57  53 CALM      29.98S
GWINNER        FAIR      72  64  78 SW5       30.01S
SHEYENNE NWR     N/A     79  61  53 SW3       29.95S
ROLLA          FAIR      70  61  73 S9        30.00F
 ***** THE ABOVE OBSERVATIONS ARE NON NWS ARE NOT QUALITY
       CONTROLLED AND MAY MIS-REPORT RAIN FOR SNOW...
$$

  *****  WEATHER ACROSS NORTHERN MINNESOTA  *****

CITY           SKY/WX    TMP DP  RH WIND       PRES   REMARKS
FLAG ISLAND    PTCLDY    75  54  46 SE5       29.99S
WARROAD        CLEAR     75  63  64 E3        30.00F
ROSEAU         CLEAR     73  64  73 CALM      29.99F
HALLOCK        CLEAR     75  57  53 CALM      29.98S
THF RVR FALLS  PTCLDY    73  57  57 S3        30.01F
BAUDETTE       CLEAR     75  58  55 S6        30.00F
WASKISH        PTCLDY    70  61  73 CALM      30.01S
CROOKSTON      CLEAR     73  59  60 CALM      30.00S
STEPHEN NDAWN    N/A     75  61  60 S2          N/A
GREENBUSH NDAW   N/A     75  59  57 SW2         N/A
$$
  *****  WEATHER ACROSS CENTRAL AND WEST MINNESOTA  *****

CITY           SKY/WX    TMP DP  RH WIND       PRES   REMARKS
FOSSTON        PTCLDY    73  57  56 CALM      30.01F
BEMIDJI        PTCLDY    72  59  62 SE8       30.02S
PARK RAPIDS    PTCLDY    73  60  63 S6        30.03S
ELBOW LAKE     CLOUDY    72  63  73 SE3       30.02F
WADENA         CLOUDY    70  63  78 CALM      30.03S
DETROIT LAKES  PTCLDY    72  61  68 SW3       30.03S
MOORHEAD       CLEAR     75  59  57 CALM      30.00S
FERGUS FALLS   CLEAR     70  64  83 CALM      30.02F
MORRIS MN      CLEAR     73  63  68 S3        30.02S
STAPLES        PTCLDY    72  57  60 CALM      30.03F
$$
  *****  WEATHER ELSEWHERE ACROSS MINNESOTA  *****

CITY           SKY/WX    TMP DP  RH WIND       PRES   REMARKS
DULUTH         CLEAR     65  51  60 SE7       30.07S
INTRNTL FALLS  PTCLDY    72  57  59 SE3       30.01F
ELY            CLEAR     72  54  53 S3        30.05S
CLOQUET        CLEAR     66  52  59 E7        30.06F
WHEATON        CLEAR     75  64  69 SE3       30.02S
BRAINERD       PTCLDY    71  58  63 SE6       30.04S
HIBBING        CLEAR     70  54  56 SE6       30.04S
ALEXANDRIA     CLOUDY    74  56  53 CALM      30.05F
SAINT CLOUD    CLEAR     72  57  59 E3        30.03S
MINNEAPOLIS    PTCLDY    75  52  44 VRB7      30.02S
$$

  *****  WEATHER ACROSS SOUTH DAKOTA  *****

CITY           SKY/WX    TMP DP  RH WIND       PRES   REMARKS
SIOUX FALLS    PTCLDY    74  55  51 E10       30.03S
BROOKINGS      CLEAR     74  56  53 E8        30.03F
WATERTOWN      CLEAR     75  56  51 S7        30.03S
HURON          PTCLDY    78  53  41 SE12      29.99F
SISSETON         N/A     75  61  61 SE5       30.00S
ABERDEEN       NOT AVBL
MITCHELL       PTCLDY    75  54  47 SE7       30.01F
PIERRE         MOSUNNY   80  55  42 SE10      29.97S
MOBRIDGE       PTSUNNY   82  55  39 SE9       29.96S
RAPID CITY     SUNNY     76  55  48 VRB3      30.01F
$$

  *****  SOME WEATHER IN NEARBY STATES *****

CITY           SKY/WX    TMP DP  RH WIND       PRES   REMARKS
GLASGOW MT     MOSUNNY   78  57  48 E9        29.94F
GREAT FALLS MT SUNNY     85  45  24 E9G20     29.97F
CHEYENNE WY    PTSUNNY   71  55  56 S8        30.17R
SCOTTSBLUFF NE LGT RAIN  65  32  29 S14       30.08F
OMAHA NE       PTCLDY    77  62  59 NE9       30.00R
DES MOINES IA  MOCLDY    71  64  78 N5        29.99S
DAVENPORT IA   PTCLDY    70  65  84 E7        29.95S
CHICAGO IL     MOCLDY    71  68  90 NE8       29.94R
EAU CLAIRE WI  MOCLDY    75  61  61 SE7       30.01S
LA CROSSE WI   CLOUDY    72  67  84 E5        30.00S
$$

  *****  SOME NATIONAL WEATHER *****

CITY           SKY/WX    TMP DP  RH WIND       PRES   REMARKS
LA GUARDIA NY  MOCLDY    80  68  66 S7        29.88R
RALEIGH NC     PTCLDY    81  72  74 CALM      29.93S
ATLANTA GA     MOCLDY    85  70  60 NW5       29.99S
NEW ORLEANS LA MOCLDY    82  74  76 S5        29.99R
OKLAHOMA CITY  PTCLDY    83  66  56 NE9       29.95F
ALBUQUERQUE NM LGT RAIN  74  58  57 E20       30.16F
SALT LAKE CITY MOSUNNY  100  35  10 N6        29.92F HX  94
LOS ANGELES CA SUNNY     75  65  70 W13       29.78F
BOISE ID       SUNNY     99  35  10 NW12      29.82F HX  93
SEATTLE WA     MOSUNNY   88  54  31 N9        29.92F
$$

*** WEATHER ACROSS MANITOBA...SASKATCHEWAN AND ONTARIO ***
                ***ONTARIO***

CITY           SKY/WX    TMP DP  RH WIND       PRES   REMARKS
GERALDTON      PTCLDY    72  52  49 VRB2      30.05S
THUNDER BAY    MOCLDY    70  52  52 S3        30.06R
SIOUX LOOKOUT  PTCLDY    70  59  68 S2        30.02F
TORONTO        MOCLDY    75  55  50 N9        29.98R
BIG TROUT LK   CLEAR     70  64  83 S2        29.96S
PICKLE LAKE    PTCLDY    75  48  38 SW6       30.00S
DRYDEN         CLEAR     75  52  43 NE3       30.02F
KENORA         MOCLDY    73  52  46 SW5       30.01F
$$
                *** MANITOBA***

CITY           SKY/WX    TMP DP  RH WIND       PRES   REMARKS
BRANDON        PTSUNNY   73  57  56 SW6       29.96F
DAUPHIN        SUNNY     75  59  57 SW6       29.92S
ISLAND LAKE    CLOUDY    72  61  68 S3        29.95S
PILOT MOUND      N/A     70  59  68 SE6         N/A
THE PAS        PTSUNNY   73  61  64 W9        29.86S
THOMPSON       MOSUNNY   63  63 100 E5        29.88F
WINNIPEG       MOSUNNY   73  54  49 S9        29.97F
LYNN LAKE      CLOUDY    64  59  82 MISG      29.88S
CHURCHILL      PTSUNNY   63  46  55 SE7       30.02S
GILLAM         PTSUNNY   64  50  59 E8G18     29.95F
$$
                ***SASKATCHEWAN***

CITY           SKY/WX    TMP DP  RH WIND       PRES   REMARKS
ESTEVAN        PTSUNNY   72  59  64 SW3       29.96F
KINDERSLEY     MOSUNNY   77  59  53 S5        29.92F
LLOYDMINSTER   PTSUNNY   75  59  57 W12       29.88F
PRINCE ALBERT  MOSUNNY   75  61  60 S6        29.85F
REGINA         PTSUNNY   73  63  68 S10       29.93F
YORKTON        MOSUNNY   72  63  73 S3        29.92F
N. BATTLEFORD  SUNNY     75  63  64 S6        29.89F
LA RONGE       PTSUNNY   72  63  73 S7        29.81F
SASKATOON      MOSUNNY   73  59  60 S6        29.90F
SWIFT CURRENT  SUNNY     75  57  53 N9        29.95F
$$
NOTE: THESE ARE AUTOMATED STATIONS WITH LIMITED QUALITY CONTROL
      "FAIR" INDICATES FEW OR NO CLOUDS BELOW 12,000 FEET WITH NO
      SIGNIFICANT WEATHER AND/OR OBSTRUCTIONS TO VISIBILITY.
      SKY/WX - SKY CONDITION AND SIGNIFICANT WEATHER.
      TMP - AIR TEMPERATURE.    DP   - DEWPOINT TEMPERATURE.
      RH  - RELATIVE HUMIDITY.  PRES - PRESSURE.
      HX  - HEAT INDEX.         WCI  - WIND CHILL INDEX.
$



USA.gov is the U.S. government's official web portal to all federal, state and local government web resources and services.